Torna al catalogo

STARLINK-5346

AttivoComunicazioniVLEO
NORAD 56518·PAYLOAD·🇺🇸 United States

Lanciato May 14, 2023 da Cape Canaveral Space Force Station

Loading…

Prossimi Passaggi (prossime 24 ore)

TLE

AggiornatoSource: CelesTrak SupGP

Epoca: Sep 15, 2026, 03:08 UTC

1 56518C 23065R   26258.13104167 -.00031101  00000+0 -11267-2 0  2581
2 56518  42.9999 222.6151 0000925 268.5048  44.0793 15.27587638    17

Traccia STARLINK-5346 in tempo reale con AllMySat

Download on the App Store